Weather in Peremoha

Ukraine / Kyiv Region     50°29′52″N   31°15′32″E
temp.,
°C
wind,
m/s
gust,
m/s
humid.,
%
clouds,
%
prec.,
mm/h
press.,
hPa
HPBL,
m
27 september, mon
mon2700:00+10nnw396431 0.0 1021174
03:00+9n48733 0.0 1021260
06:00+6nnw38940 0.0 1022233
09:00+8n47805 0.0 1023403
12:00+11nne556514 0.0 1024808
15:00+13n455722 0.0 10231120
18:00+12nne575987 0.0 1023641
21:00+9n387225 0.0 1024166
28 september, tue
tue2800:00+8nne36855 0.0 1024125
03:00+7nne35935 0.0 102493
06:00+6nne34955 0.0 102584
09:00+9nne35815 0.0 1026303
12:00+13ne456062 0.0 10261217
15:00+14nne4449100 0.2 10261683
18:00+12ne576896 0.1 1027471
21:00+10ne4878100 0.1 1029439
29 september, wed
wed2900:00+10ene4881100 0.0 1030471
03:00+9ene4777100 0.0 1031448
06:00+6ene37895 0.0 1032199
09:00+8e587914 0.0 1032527
12:00+11e565782 0.0 10331246
15:00+12ene4451100 0.0 10321462
18:00+11e4552100 0.0 1032843
21:00+9ene335946 0.0 103367
30 september, thu
thu3000:00+6ene34715 0.0 103479
03:00+5e337023 0.0 103450
06:00+4e34695 0.0 103467
09:00+8ese46565 0.0 1034245
12:00+13se45395 0.0 10341023
15:00+14se34335 0.0 10331370
18:00+12ese34432 0.0 103350
21:00+8ese35530 0.0 103383
1 october, fri
fri100:00+7se35590 0.0 103485
03:00+6se34610 0.0 103558
06:00+5se34623 0.0 103546
09:00+8se35505 0.0 1035197
12:00+14sse45381 0.0 1035961
15:00+15sse34335 0.0 10341429
18:00+12se34435 0.0 103345
21:00+9se3652100 0.0 103484